{"data":{"norad_id":32783,"intl_designator":"2008-021A","name":"CARTOSAT-2A","alt_names":[],"object_type":"PAYLOAD","status":"ACTIVE","operator":null,"country":"IND","launch_date":"2008-04-28","launch_site_code":"SRILR","launch_vehicle":null,"mission":null,"orbit_class":"UNKNOWN","rcs_meters":2.316,"size_class":null,"mass_kg":null,"dimensions":null,"purposes":["earth_obs"],"wikipedia_slug":null,"has_3d_model":false,"image_url":null,"decayed_at":null,"tle_current":{"epoch":"2026-05-25T04:23:02.141952Z","epoch_age_seconds":52493,"freshness":"FRESH","line1":"1 32783U 08021A   26145.18266368  .00000783  00000+0  11215-3 0  9992","line2":"2 32783  97.7648 194.6755 0011667 179.1004 181.0231 14.79200643975403","mean_motion":14.79200643,"eccentricity":0.0011667,"inclination_deg":97.7648,"raan_deg":194.6755,"arg_perigee_deg":179.1004,"mean_anomaly_deg":181.0231,"bstar":0.00011215,"rev_number":97540,"period_min":97.349876557619,"perigee_km":623.66990251064,"apogee_km":640.02700256559,"semimajor_km":7009.9854525381,"source":"CELESTRAK","updated_at":"2026-05-25T13:38:12.772389Z"}}}